Lid_Strength_Index
7 7 7 6 6 6 6 7 6 6 6 6 6 5 5 5 5 5 4 4 4 4 4 4 3 3 3 2 2 2 1 2
7 7 7 6 6 6 7 7 7 6 6 6 6 6 6 6 6 6 6 6 6 6 5 5 5 4 4 4 4 4 3 3
7 7 7 7 7 7 7 8 7 7 7 7 7 7 7 8 8 7 7 7 7 7 7 7 6 6 6 6 5 5 5 5
7 8 8 8 8 8 8 8 8 8 8 8 9 9 9 9 9 9 9 8 8 9 9 9 8 8 8 7 7 6 6 6
8 8 8 8 8 9 9 9 9 9 9 9 10 10 10 10 10 10 10 10 9 9 9 9 9 9 9 8 8 7 7 7
9 9 9 9 9 8 9 9 9 9 10 10 10 11 11 11 11 11 10 10 10 10 10 10 10 9 9 9 9 9 9 9
9 9 9 9 9 9 10 10 10 10 11 11 12 12 12 12 12 12 12 12 12 11 11 11 10 10 10 10 10 10 10 10
9 9 10 10 10 10 10 11 11 11 12 13 13 13 13 13 13 13 13 13 13 12 12 12 11 10 10 10 10 9 9 9
10 10 10 11 11 11 11 12 12 12 13 13 13 13 13 14 14 13 13 13 13 13 12 12 11 10 10 10 9 8 8 8
10 10 11 11 12 12 12 12 13 13 13 13 14 14 14 15 14 14 14 13 13 13 12 12 12 11 10 10 10 10 9 9
11 11 11 12 12 12 13 13 13 14 14 14 14 15 15 14 14 13 14 14 13 13 12 12 12 12 11 10 10 11 10 9
11 12 12 13 13 13 14 14 14 15 15 15 14 15 14 14 14 14 14 13 13 13 12 12 12 12 11 10 10 10 11 11
11 12 13 14 14 15 15 15 16 16 16 15 15 14 14 15 13 13 14 14 13 12 12 10 10 11 11 10 10 9 10 11
13 14 15 16 16 17 16 16 16 17 17 16 15 14 13 13 12 13 13 13 12 12 12 12 11 11 11 10 8 9 10 10
16 16 17 17 17 17 17 16 18 18 17 16 16 14 13 12 12 12 12 13 13 12 12 12 12 11 10 9 9 10 10 9
17 17 17 17 17 17 18 18 19 18 17 16 15 14 14 13 13 13 12 12 13 13 12 12 12 10 9 9 9 9 8 8
19 19 19 19 20 19 20 19 20 19 17 17 17 16 16 15 15 13 12 11 10 10 9 9 8 8 9 8 7 8 7 8
21 22 22 22 22 21 21 21 21 21 20 19 19 18 17 17 16 17 14 11 10 9 8 8 7 8 8 7 6 6 7 8
23 24 24 24 24 22 21 21 22 22 22 21 20 19 19 18 17 16 16 15 13 10 9 8 6 6 6 5 7 8 8 9
27 27 27 27 25 23 23 24 23 23 22 21 20 20 19 18 18 17 16 15 13 11 9 9 7 6 5 5 7 9 11 12